This is the latest recevied weather packets stored in our database for station/object HB9FSE-WX. If no packets are shown the sender has not sent any weather packets the latest 10 day(s).
| Time | Temp. | Humidity | Pressure | Rain* | Wind** | Luminosity | Snow |
|---|---|---|---|---|---|---|---|
| 1778069492 | 23.33° C | 39% | 1008 hPa | - | - | - | - |
| 1778068592 | 23.33° C | 38% | 1007.8 hPa | - | - | - | - |
| 1778067692 | 23.89° C | 38% | 1007.4 hPa | - | - | - | - |
| 1778066792 | 23.33° C | 38% | 1007.4 hPa | - | - | - | - |
| 1778065892 | 23.33° C | 37% | 1007.3 hPa | - | - | - | - |
| 1778064992 | 24.44° C | 38% | 1007.5 hPa | - | - | - | - |
| 1778064092 | 23.89° C | 39% | 1007.5 hPa | - | - | - | - |
| 1778063191 | 23.89° C | 40% | 1007.5 hPa | - | - | - | - |
| 1778062291 | 23.33° C | 41% | 1007.6 hPa | - | - | - | - |
| 1778061391 | 23.33° C | 40% | 1007.6 hPa | - | - | - | - |
| 1778060491 | 23.33° C | 40% | 1007.8 hPa | - | - | - | - |
| 1778059591 | 23.33° C | 40% | 1007.6 hPa | - | - | - | - |
| 1778058691 | 23.33° C | 39% | 1007.4 hPa | - | - | - | - |
| 1778057791 | 23.33° C | 40% | 1007.5 hPa | - | - | - | - |
| 1778056891 | 23.33° C | 39% | 1007.6 hPa | - | - | - | - |
| 1778055991 | 23.33° C | 39% | 1007.7 hPa | - | - | - | - |
| 1778055091 | 23.33° C | 39% | 1007.4 hPa | - | - | - | - |
| 1778054189 | 23.33° C | 39% | 1007.5 hPa | - | - | - | - |
| 1778053289 | 23.33° C | 39% | 1007.6 hPa | - | - | - | - |
| 1778052389 | 22.78° C | 39% | 1007.6 hPa | - | - | - | - |
| 1778051489 | 22.78° C | 39% | 1007.7 hPa | - | - | - | - |
| 1778050589 | 22.78° C | 39% | 1007.8 hPa | - | - | - | - |
| 1778049689 | 22.78° C | 39% | 1007.7 hPa | - | - | - | - |
| 1778047905 | 22.78° C | 39% | 1007.7 hPa | - | - | - | - |
| 1778047005 | 22.78° C | 39% | 1007.7 hPa | - | - | - | - |
* Rain since midnight (hover to see other rain measurements)
** Current wind speed in m/s (hover to see current wind gust speed)